Location: Krakow
(50.0830°N, 19.9170°E)
Time: 21:05:28
(UTC+01:00)

Altair - Pass Details

Date: 01 December 2023
Orbit: 1501 x 1682 km, 47.2° (Epoch: 03 March)

Event Time Altitude Azimuth Distance (km) Brightness Sun altitude
Rises 09:47:37 0° 237° (WSW) 4,787 10.2 14.7°
Reaches altitude 10° 09:50:48 10° 234° (SW) 3,778 9.8 14.9°
Maximum altitude 10:00:05 60° 158° (SSE) 1,730 8.7 15.5°
Drops below altitude 10° 10:09:06 10° 81° (E) 3,672 9.7 16.0°
Sets 10:12:08 0° 78° (ENE) 4,645 10.1 16.1°
